Location: Chuathbaluk
(61.5726°N, 159.2454°W)
Time: 04:43:32
(UTC+00:00)

Explorer 7 - Pass Details

Date: 05 December 2021
Orbit: 483 x 674 km, 50.3° (Epoch: 25 January)

Event Time Altitude Azimuth Distance (km) Brightness Sun altitude
Exits shadow 16:35:10 - 209° (SSW) 2,678 10.2 -18.8°
Maximum altitude 16:40:00 12° 158° (SSE) 1,705 9.8 -18.2°
Drops below altitude 10° 16:41:33 10° 136° (SE) 1,804 10.3 -18.0°
Sets 16:45:00 0° 104° (ESE) 2,650 12.1 -17.6°
